User: anonymous   Login
Location: Maiden
(35.5760°N, 81.2120°W)
Time: 19:48:40
(UTC-04:00)
Language:

Cosmos 2151 - Orbit

View from above orbital plane
View from above orbital plane
View from above satellite
View from above satellite

Ground track
Ground track

The orbit data is extracted from the following two-line orbital elements,

1 21422U 91042A   16273.67549034 +.00000441 +00000-0 +41222-4 0  9998
2 21422 082.4998 134.3417 0015860 084.7666 275.5363 14.91699902348582
Epoch (UTC): 29 September 2016 16:12:42
Eccentricity: 0.0015860
inclination: 82.4998°
perigee height: 581 km
apogee height: 603 km
right ascension of ascending node: 134.3417°
argument of perigee: 84.7666°
revolutions per day: 14.91699902
mean anomaly at epoch: 275.5363°
orbit number at epoch: 34858

The dashed part of the orbit path shows where the satellite is in the earth's shadow,  

DLR